TimePST,TemperatureF,Dew PointF,Humidity,Sea Level PressureIn,VisibilityMPH,Wind Direction,Wind SpeedMPH,Gust SpeedMPH,PrecipitationIn,Events,Conditions,WindDirDegrees,DateUTC
12:00 AM,41.0,41.0,100,29.67,8.0,WSW,3.5,-,N/A,,Overcast,240,2012-11-29 08:00:00
12:22 AM,41.0,-9999,N/A,-9999,8.0,West,4.6,-,N/A,Rain,Light Rain,280,2012-11-29 08:22:00
1:00 AM,41.0,41.0,100,29.65,12.0,Calm,Calm,-,N/A,,Overcast,0,2012-11-29 09:00:00
1:10 AM,42.8,-9999,N/A,-9999,8.0,WSW,2.3,-,N/A,Rain,Light Rain,250,2012-11-29 09:10:00
1:38 AM,42.8,-9999,N/A,-9999,8.0,Calm,Calm,-,N/A,,Overcast,0,2012-11-29 09:38:00
2:00 AM,42.8,42.8,100,29.63,10.0,West,2.3,-,N/A,,Overcast,270,2012-11-29 10:00:00
2:42 AM,42.8,-9999,N/A,-9999,10.0,NNE,2.3,-,N/A,,Overcast,20,2012-11-29 10:42:00
3:00 AM,42.8,42.8,100,29.61,12.0,SE,2.3,-,N/A,,Overcast,130,2012-11-29 11:00:00
4:00 AM,47,46,96,29.57,15,SSE,5.8,,,,Partly Cloudy,150,2012-11-29 12:00:00
4:00 AM,46.4,46.4,100,29.57,15.0,SE,3.5,-,N/A,,Overcast,130,2012-11-29 12:00:00
5:00 AM,48.2,46.4,93,29.54,20.0,SE,3.5,-,N/A,,Overcast,140,2012-11-29 13:00:00
6:00 AM,50.0,44.6,82,29.51,20.0,South,6.9,-,N/A,,Overcast,170,2012-11-29 14:00:00
6:16 AM,50.0,-9999,N/A,-9999,20.0,SSE,11.5,-,N/A,Rain,Light Rain,160,2012-11-29 14:16:00
7:00 AM,50.0,44.6,82,29.46,30.0,SSE,15.0,21.9,N/A,,Overcast,160,2012-11-29 15:00:00
7:21 AM,50.0,-9999,N/A,-9999,30.0,SSE,15.0,24.2,N/A,Rain,Light Rain,150,2012-11-29 15:21:00
8:00 AM,51.8,44.6,76,29.47,30.0,South,17.3,28.8,N/A,Rain,Light Rain,180,2012-11-29 16:00:00
9:00 AM,51.8,44.6,76,29.48,20.0,South,17.3,28.8,N/A,Rain,Light Rain,170,2012-11-29 17:00:00
10:00 AM,52,46,71,29.49,28,South,17.3,,,Rain,Light Rain,180,2012-11-29 18:00:00
10:00 AM,51.8,46.4,82,29.49,30.0,South,16.1,24.2,N/A,Rain,Light Rain,180,2012-11-29 18:00:00
10:18 AM,51.8,-9999,N/A,-9999,30.0,South,17.3,23.0,N/A,,Mostly Cloudy,180,2012-11-29 18:18:00
11:00 AM,51.8,46.4,82,29.51,20.0,SE,11.5,19.6,N/A,Rain,Light Rain,140,2012-11-29 19:00:00
12:00 PM,55.4,48.2,77,29.52,30.0,South,6.9,-,N/A,Rain,Light Rain,170,2012-11-29 20:00:00
12:30 PM,55.4,-9999,N/A,-9999,30.0,ESE,11.5,-,N/A,,Scattered Clouds,110,2012-11-29 20:30:00
1:00 PM,51.8,46.4,82,29.53,30.0,SSE,5.8,-,N/A,,Scattered Clouds,150,2012-11-29 21:00:00
2:00 PM,50.0,46.4,87,29.53,30.0,ESE,11.5,-,N/A,Rain,Light Rain,120,2012-11-29 22:00:00
3:00 PM,50.0,46.4,87,29.53,30.0,SE,9.2,-,N/A,Rain,Light Rain,130,2012-11-29 23:00:00
3:45 PM,50.0,-9999,N/A,-9999,20.0,SE,9.2,-,N/A,,Mostly Cloudy,130,2012-11-29 23:45:00
4:00 PM,50,47,87,29.52,19,ESE,11.5,,,Rain,Light Rain,120,2012-11-30 00:00:00
4:00 PM,50.0,48.2,94,29.52,20.0,ESE,11.5,-,N/A,,Mostly Cloudy,120,2012-11-30 00:00:00
5:00 PM,50.0,46.4,87,29.49,20.0,ESE,12.7,19.6,N/A,,Mostly Cloudy,120,2012-11-30 01:00:00
6:00 PM,50.0,46.4,87,29.48,30.0,SE,8.1,-,N/A,,Mostly Cloudy,140,2012-11-30 02:00:00
7:00 PM,50.0,46.4,87,29.47,30.0,SE,6.9,-,N/A,,Mostly Cloudy,130,2012-11-30 03:00:00
8:00 PM,51.8,46.4,82,29.45,30.0,SSE,12.7,-,N/A,Rain,Light Rain,150,2012-11-30 04:00:00
9:00 PM,50.0,44.6,82,29.44,20.0,SSE,16.1,-,N/A,,Mostly Cloudy,150,2012-11-30 05:00:00
10:00 PM,50,45,78,29.43,19,SSE,13.8,,,,Partly Cloudy,150,2012-11-30 06:00:00
10:00 PM,50.0,44.6,82,29.43,20.0,SSE,15.0,-,N/A,,Overcast,150,2012-11-30 06:00:00
11:00 PM,50.0,46.4,87,29.41,20.0,SSE,16.1,28.8,N/A,,Overcast,150,2012-11-30 07:00:00